sat.trackr.live / text

‹ back to catalog

COSMOS 2507 (RODNIK-S *)

NORAD 40920 · 2015-050A

PAYLOAD ACTIVE UNKNOWN

§ Identity

Operator
Country
CIS
Launch date
2015-09-23
Launch site
PLMSC
Launch vehicle
Mass (kg)
RCS (m²)
1.56

External: N2YO · Heavens-Above · Gunter

§ Orbital elements

Epoch: 2026-09-20T03:14:36.934944Z

Period
115.86 min
Inclination
82.4964°
Eccentricity
0.0010599
Mean motion
12.42929684 rev/d
Perigee alt
1,485.9 km
Apogee alt
1,502.6 km
Semi-major
7,872.3 km
B*
6.2697e-4
RAAN
20.5401°
Arg perigee
140.0857°
Mean anomaly
220.1004°
Rev number
49,865

§ Raw data

COSMOS 2507 (RODNIK-S *)1 40920U 15050A   26263.13514971  .00000097  00000+0  62697-3 0  99942 40920  82.4964  20.5401 0010599 140.0857 220.1004 12.42929684498659

JSON: /api/v1/satellites/40920 · /tle

For live sub-satellite position, see the globe view (requires WebGL).

§ Visibility from observer

Set your observer location to see the next 7 days of passes ≥ 10°. The values pass through the URL so the page stays shareable.

No JS? Fill the form by hand. The geolocation button needs JavaScript.

§ Radio — SatNOGS DB

ModeDescriptionDownlinkUplink
FM UHF Unknown 388.687 MHz

1 transmitter · refreshed weekly from db.satnogs.org